EW4337 Weather Reports


Display with metric or nautical units.
time (UTC)temp
F
wind
direction
speed
MPH
gust
MPH
rain 1hr
in
rain 24hr
in
rain mn
in
humidity
%
barometer
mb
20260903192704 66 234 2.0 3.0 0.00 0.02 0.02 87 1014.2
20260903192203 66 231 1.0 3.0 0.00 0.02 0.02 86 1014.2
20260903191703 67 229 2.0 3.0 0.00 0.02 0.02 86 1014.1
20260903191203 67 224 1.0 3.0 0.00 0.02 0.02 86 1013.8
20260903190704 67 230 2.0 7.0 0.00 0.02 0.02 85 1013.9
20260903190204 67 239 2.0 3.0 0.00 0.02 0.02 85 1013.9
20260903185204 67 245 2.0 3.0 0.00 0.02 0.02 85 1013.8
20260903184704 67 205 2.0 6.0 0.00 0.02 0.02 84 1013.8
20260903184204 68 207 3.0 5.0 0.00 0.02 0.02 84 1014.0
20260903183203 68 244 3.0 6.0 0.00 0.02 0.02 83 1014.1
20260903182704 68 255 3.0 8.0 0.00 0.02 0.02 83 1014.0
20260903182204 68 240 3.0 6.0 0.00 0.02 0.02 83 1014.2
20260903181704 68 238 4.0 8.0 0.00 0.02 0.02 82 1013.9
20260903181204 68 244 5.0 8.0 0.00 0.02 0.02 81 1013.7
20260903180704 68 238 3.0 7.0 0.00 0.02 0.02 81 1013.7
20260903175704 69 231 4.0 9.0 0.00 0.02 0.02 80 1013.9
20260903175204 69 248 5.0 9.0 0.00 0.02 0.02 80 1014.0
20260903174704 69 243 5.0 12.0 0.00 0.02 0.02 79 1014.0
20260903174206 69 256 4.0 12.0 0.00 0.02 0.02 79 1014.2
20260903173704 69 243 7.0 12.0 0.00 0.02 0.02 79 1014.0
20260903172703 69 282 7.0 12.0 0.00 0.02 0.02 78 1013.9
20260903172202 69 267 6.0 12.0 0.00 0.02 0.02 78 1014.0
20260903171702 69 258 6.0 12.0 0.00 0.02 0.02 78 1013.9
20260903171202 69 278 6.0 13.0 0.00 0.02 0.02 78 1014.0
20260903170703 70 266 6.0 14.0 0.00 0.02 0.02 77 1013.9
20260903170203 70 272 9.0 14.0 0.00 0.02 0.02 77 1013.8
20260903165702 70 273 10.0 17.0 0.00 0.02 0.02 77 1013.8
20260903165203 70 267 7.0 16.0 0.00 0.02 0.02 78 1013.8
20260903164702 70 258 7.0 15.0 0.00 0.02 0.02 78 1013.8
20260903163203 70 279 7.0 14.0 0.00 0.02 0.02 76 1013.8
20260903162704 70 267 8.0 15.0 0.00 0.02 0.02 76 1013.7
20260903161703 71 269 8.0 15.0 0.00 0.02 0.02 75 1013.8
20260903161202 71 268 12.0 16.0 0.00 0.02 0.02 74 1013.8
20260903160703 71 281 9.0 16.0 0.00 0.02 0.02 74 1013.8
20260903160203 71 263 11.0 20.0 0.00 0.02 0.02 75 1014.0
20260903155703 71 261 6.0 18.0 0.00 0.02 0.02 76 1013.8
20260903155203 71 254 9.0 15.0 0.00 0.02 0.02 77 1013.8
20260903154703 71 261 8.0 16.0 0.00 0.02 0.02 77 1013.9
20260903154203 71 246 7.0 15.0 0.00 0.02 0.02 77 1013.8
20260903153703 71 259 11.0 20.0 0.00 0.02 0.02 77 1013.9
20260903151703 70 270 9.0 17.0 0.00 0.02 0.02 78 1013.7
20260903151203 70 261 9.0 20.0 0.00 0.02 0.02 78 1013.7
20260903150203 71 260 10.0 21.0 0.00 0.02 0.02 77 1013.6
20260903145703 71 244 12.0 20.0 0.00 0.02 0.02 77 1013.5
20260903145202 72 257 12.0 20.0 0.00 0.02 0.02 76 1013.5
20260903144703 72 255 9.0 18.0 0.00 0.02 0.02 77 1013.5
20260903144203 72 274 12.0 16.0 0.00 0.02 0.02 77 1013.5
20260903143704 72 264 7.0 16.0 0.00 0.02 0.02 79 1013.6
20260903143203 71 259 10.0 17.0 0.00 0.02 0.02 79 1013.5
20260903142203 71 249 10.0 21.0 0.00 0.02 0.02 79 1013.4
20260903141703 71 255 9.0 20.0 0.00 0.02 0.02 78 1013.5
20260903140703 72 283 12.0 20.0 0.00 0.02 0.02 78 1013.4
20260903140203 72 260 13.0 21.0 0.00 0.02 0.02 78 1013.5
20260903135704 72 266 12.0 21.0 0.00 0.02 0.02 77 1013.4
20260903135203 73 246 11.0 20.0 0.00 0.02 0.02 77 1013.3
20260903134704 73 282 10.0 16.0 0.00 0.02 0.02 77 1013.2
20260903134203 72 265 13.0 20.0 0.00 0.02 0.02 78 1013.4
20260903133704 72 256 10.0 20.0 0.00 0.02 0.02 79 1013.3
20260903132703 72 272 13.0 21.0 0.00 0.02 0.02 79 1013.2
20260903132204 72 276 12.0 17.0 0.00 0.02 0.02 78 1013.2
20260903131703 73 264 13.0 22.0 0.00 0.02 0.02 79 1013.1
20260903131204 72 275 12.0 20.0 0.00 0.02 0.02 80 1013.2
20260903130705 72 278 8.0 20.0 0.00 0.02 0.02 81 1013.2
20260903130204 72 257 8.0 20.0 0.00 0.02 0.02 81 1013.2
20260903125704 72 254 10.0 16.0 0.00 0.02 0.02 82 1013.1
20260903124703 72 273 11.0 18.0 0.00 0.02 0.02 82 1013.0
20260903124204 72 249 10.0 16.0 0.00 0.02 0.02 82 1013.0
20260903123703 71 245 8.0 15.0 0.00 0.02 0.02 83 1012.9
20260903122704 72 282 12.0 23.0 0.00 0.02 0.02 81 1012.9
20260903122204 72 283 7.0 18.0 0.00 0.02 0.02 82 1012.9
20260903121704 72 276 7.0 17.0 0.00 0.02 0.02 82 1012.8
20260903120704 72 252 10.0 20.0 0.00 0.02 0.02 82 1012.7
20260903120203 72 267 7.0 18.0 0.00 0.02 0.02 82 1012.6
20260903115704 71 251 7.0 15.0 0.00 0.02 0.02 83 1012.6
20260903115203 71 273 10.0 17.0 0.00 0.02 0.02 83 1012.7
20260903114703 71 254 9.0 18.0 0.00 0.02 0.02 83 1012.6
20260903114204 71 258 8.0 14.0 0.00 0.02 0.02 83 1012.6
20260903113704 71 262 6.0 10.0 0.00 0.02 0.02 84 1012.6
20260903113204 71 263 9.0 15.0 0.00 0.02 0.02 83 1012.6
20260903112704 71 254 7.0 16.0 0.00 0.02 0.02 82 1012.5
20260903111704 71 252 11.0 20.0 0.00 0.02 0.02 81 1012.4
20260903111204 72 248 10.0 22.0 0.01 0.02 0.02 82 1012.3
20260903110704 72 241 12.0 23.0 0.01 0.02 0.02 82 1012.4
20260903110204 72 234 13.0 21.0 0.01 0.02 0.02 81 1012.3
20260903105704 72 244 12.0 21.0 0.01 0.02 0.02 80 1012.3
20260903104704 72 237 12.0 20.0 0.01 0.02 0.02 82 1012.3
20260903104205 72 280 12.0 22.0 0.01 0.02 0.02 83 1012.3
20260903103704 71 248 10.0 18.0 0.01 0.02 0.02 85 1012.5
20260903103205 71 260 9.0 16.0 0.01 0.02 0.02 85 1012.3
20260903102704 71 253 12.0 21.0 0.01 0.02 0.02 85 1012.4
20260903102204 71 240 7.0 13.0 0.01 0.02 0.02 86 1012.4
20260903101704 71 237 10.0 16.0 0.01 0.02 0.02 86 1012.4
20260903101202 71 275 11.0 18.0 0.00 0.02 0.02 87 1012.5
20260903100702 70 251 10.0 20.0 0.00 0.02 0.02 90 1012.5
20260903100202 70 259 6.0 16.0 0.00 0.02 0.02 92 1012.4
20260903095203 68 239 10.0 20.0 0.00 0.02 0.02 94 1012.5
20260903094702 68 237 7.0 14.0 0.00 0.02 0.02 96 1012.4
20260903094202 67 248 8.0 18.0 0.00 0.02 0.02 96 1012.3
20260903093703 67 242 9.0 15.0 0.00 0.02 0.02 96 1012.3
20260903092702 67 240 6.0 14.0 0.00 0.02 0.02 97 1012.4
20260903092202 67 243 5.0 8.0 0.00 0.02 0.02 97 1012.3
20260903091702 67 239 5.0 12.0 0.00 0.02 0.02 97 1012.3
20260903091202 66 227 5.0 12.0 0.00 0.02 0.02 97 1012.4
20260903085703 66 237 4.0 9.0 0.00 0.02 0.02 97 1012.3
20260903085202 66 239 4.0 9.0 0.00 0.02 0.02 97 1012.2
20260903084703 66 246 4.0 12.0 0.00 0.02 0.02 97 1012.2
20260903084202 66 238 2.0 7.0 0.00 0.02 0.02 96 1012.1
20260903083705 66 236 3.0 8.0 0.01 0.02 0.02 96 1012.2
20260903083203 66 215 5.0 10.0 0.01 0.02 0.02 96 1012.2
20260903082702 66 241 2.0 9.0 0.01 0.02 0.02 96 1012.2
20260903081703 66 226 3.0 8.0 0.01 0.02 0.02 96 1012.2
20260903081203 65 220 5.0 10.0 0.02 0.02 0.02 96 1012.2
20260903080703 65 229 3.0 7.0 0.02 0.02 0.02 96 1012.1
20260903080202 65 210 4.0 7.0 0.02 0.02 0.02 96 1012.2
20260903075703 65 234 3.0 9.0 0.02 0.02 0.02 96 1012.2
20260903075203 65 237 4.0 7.0 0.02 0.02 0.02 96 1012.3
20260903074703 65 225 3.0 7.0 0.02 0.02 0.02 95 1012.3
20260903074203 65 219 3.0 9.0 0.02 0.02 0.02 96 1012.4
20260903073703 65 231 5.0 16.0 0.01 0.01 0.01 95 1012.3
20260903073203 65 215 2.0 7.0 0.01 0.01 0.01 95 1012.4
20260903072203 65 213 5.0 10.0 0.01 0.01 0.01 95 1012.3
20260903071703 65 209 3.0 10.0 0.01 0.01 0.01 95 1012.3
20260903071203 65 224 5.0 12.0 0.00 0.00 0.00 95 1012.2
20260903070703 65 227 5.0 10.0 0.00 0.00 0.00 95 1012.2
20260903070203 64 208 6.0 14.0 0.00 0.00 0.00 95 1012.2
20260903065703 64 222 3.0 10.0 0.00 0.00 0.00 95 1012.2
20260903065203 64 215 5.0 10.0 0.00 0.00 0.00 95 1012.1
20260903064703 64 231 3.0 9.0 0.00 0.00 0.00 95 1012.1
20260903064203 64 231 5.0 10.0 0.00 0.00 0.00 95 1012.0
20260903063703 64 211 6.0 14.0 0.00 0.00 0.00 95 1012.0
20260903063203 64 222 3.0 9.0 0.00 0.00 0.00 95 1012.0
20260903062203 63 217 3.0 10.0 0.00 0.00 0.00 95 1012.0
20260903061203 63 185 3.0 10.0 0.00 0.00 0.00 94 1012.1
20260903060704 63 187 5.0 13.0 0.00 0.00 0.00 94 1012.1
20260903055703 63 187 5.0 12.0 0.00 0.00 0.00 94 1012.3
20260903055204 63 180 5.0 8.0 0.00 0.00 0.00 94 1012.3
20260903054703 63 216 3.0 8.0 0.00 0.00 0.00 94 1012.4
20260903054203 63 173 5.0 14.0 0.00 0.00 0.00 93 1012.4
20260903053703 63 200 5.0 9.0 0.00 0.00 0.00 93 1012.5
20260903053203 63 183 3.0 6.0 0.00 0.00 0.00 93 1012.5
20260903052703 63 196 2.0 8.0 0.00 0.00 0.00 93 1012.5
20260903052203 63 199 4.0 10.0 0.00 0.00 0.00 92 1012.6
20260903051704 63 199 5.0 12.0 0.00 0.00 0.00 92 1012.6
20260903051204 63 176 2.0 8.0 0.00 0.00 0.00 92 1012.6
20260903050704 63 189 2.0 8.0 0.00 0.00 0.00 91 1012.6
20260903050204 63 212 4.0 12.0 0.00 0.00 0.00 91 1012.4
20260903045703 63 189 5.0 12.0 0.00 0.00 0.00 90 1012.4
20260903045203 63 221 5.0 12.0 0.00 0.00 0.00 90 1012.5
20260903044703 63 194 3.0 12.0 0.00 0.00 0.00 90 1012.2
20260903044204 63 193 3.0 10.0 0.00 0.00 0.00 90 1012.6
20260903043204 63 202 2.0 10.0 0.00 0.00 0.00 90 1012.6
20260903042703 63 162 4.0 10.0 0.00 0.00 0.00 90 1012.4
20260903042203 63 185 3.0 10.0 0.00 0.00 0.00 90 1012.6
20260903041704 63 199 5.0 12.0 0.00 0.00 0.00 90 1012.6
20260903041204 63 187 3.0 8.0 0.00 0.00 0.00 90 1012.7
20260903040703 63 169 4.0 6.0 0.00 0.00 0.00 90 1012.6
20260903040204 63 179 3.0 12.0 0.00 0.00 0.00 90 1012.6
20260903035704 63 181 3.0 9.0 0.00 0.00 0.00 90 1012.7
20260903035203 63 180 2.0 7.0 0.00 0.00 0.00 91 1012.8
20260903034704 63 189 3.0 9.0 0.00 0.00 0.00 91 1012.8
20260903033704 63 219 3.0 10.0 0.00 0.00 0.00 91 1012.9
20260903033203 63 235 2.0 8.0 0.00 0.00 0.00 91 1013.0
20260903032703 63 218 5.0 8.0 0.00 0.00 0.00 90 1013.1
20260903032203 63 202 3.0 12.0 0.00 0.00 0.00 90 1013.1
20260903031703 63 192 2.0 9.0 0.00 0.00 0.00 90 1013.1
20260903031203 63 235 3.0 9.0 0.00 0.00 0.00 90 1013.3
20260903030703 63 199 4.0 10.0 0.00 0.00 0.00 90 1013.3
20260903030203 63 214 4.0 8.0 0.00 0.00 0.00 89 1013.3
20260903025704 63 214 2.0 10.0 0.00 0.00 0.00 89 1013.4
20260903025203 63 203 2.0 8.0 0.00 0.00 0.00 89 1013.4
20260903024203 63 219 2.0 7.0 0.00 0.00 0.00 88 1013.4
20260903023703 63 176 3.0 9.0 0.00 0.00 0.00 88 1013.4
20260903023203 63 163 3.0 12.0 0.00 0.00 0.00 88 1013.5
20260903022703 63 186 3.0 12.0 0.00 0.00 0.00 89 1013.5
20260903021703 63 227 2.0 8.0 0.00 0.00 0.00 89 1013.6
20260903021203 63 221 3.0 8.0 0.00 0.00 0.00 90 1013.7
20260903020204 63 196 3.0 9.0 0.00 0.00 0.00 91 1013.6
20260903015703 62 198 3.0 9.0 0.00 0.00 0.00 91 1013.6
20260903015204 62 195 3.0 12.0 0.00 0.00 0.00 92 1013.8
20260903014703 62 190 5.0 12.0 0.00 0.00 0.00 92 1013.9
20260903014203 62 164 5.0 10.0 0.00 0.00 0.00 92 1013.9
20260903012703 62 171 3.0 9.0 0.00 0.00 0.00 93 1014.0
20260903012203 62 170 3.0 7.0 0.00 0.00 0.00 93 1014.1
20260903011704 62 166 5.0 10.0 0.00 0.00 0.00 93 1014.0
20260903011203 62 150 3.0 8.0 0.00 0.00 0.00 93 1014.2
20260903010703 62 161 4.0 9.0 0.00 0.00 0.00 94 1014.4
20260903010204 62 171 2.0 9.0 0.00 0.00 0.00 94 1014.4
20260903005703 62 161 3.0 9.0 0.00 0.00 0.00 94 1014.5
20260903004704 62 168 3.0 9.0 0.00 0.00 0.00 94 1014.7
20260903004203 62 174 3.0 10.0 0.00 0.00 0.00 94 1014.8
20260903003703 62 148 3.0 9.0 0.00 0.00 0.00 94 1014.9
20260903002703 62 170 5.0 9.0 0.00 0.00 0.00 93 1015.0
20260903001703 62 155 3.0 6.0 0.00 0.00 0.00 93 1015.1
20260903001203 62 173 3.0 7.0 0.00 0.00 0.00 92 1015.2
20260903000704 62 160 3.0 6.0 0.00 0.00 0.00 92 1015.2
20260903000205 62 135 3.0 8.0 0.00 0.00 0.00 92 1015.3
20260902235704 62 170 2.0 7.0 0.00 0.00 0.00 92 1015.3
20260902235204 62 169 5.0 9.0 0.00 0.00 0.00 92 1015.3
20260902234704 62 165 5.0 8.0 0.00 0.00 0.00 91 1015.3
20260902234204 62 174 3.0 9.0 0.00 0.00 0.00 91 1015.4
20260902233704 62 178 5.0 10.0 0.00 0.00 0.00 91 1015.4
20260902232704 63 192 3.0 8.0 0.00 0.00 0.00 90 1015.5
20260902232204 63 217 3.0 8.0 0.00 0.00 0.00 90 1015.7
20260902231704 63 176 4.0 9.0 0.00 0.00 0.00 90 1015.9
20260902231204 63 218 6.0 12.0 0.00 0.00 0.00 89 1016.0
20260902230704 63 246 5.0 12.0 0.00 0.00 0.00 89 1016.0
20260902230204 63 202 6.0 12.0 0.00 0.00 0.00 89 1016.1
20260902225704 63 202 3.0 12.0 0.00 0.00 0.00 89 1016.1
20260902225204 63 214 4.0 12.0 0.00 0.00 0.00 89 1016.2
20260902224704 63 170 2.0 7.0 0.00 0.00 0.00 89 1016.1
20260902224203 63 217 5.0 12.0 0.00 0.00 0.00 89 1016.2
20260902223704 63 191 3.0 6.0 0.00 0.00 0.00 88 1016.3
20260902223204 63 174 3.0 9.0 0.00 0.00 0.00 88 1016.3
20260902222704 63 177 3.0 12.0 0.00 0.00 0.00 88 1016.3
20260902222204 63 161 2.0 8.0 0.00 0.00 0.00 88 1016.3
20260902221204 63 164 2.0 5.0 0.00 0.00 0.00 88 1016.4
20260902220704 63 178 2.0 5.0 0.00 0.00 0.00 88 1016.5
20260902220204 63 156 2.0 6.0 0.00 0.00 0.00 88 1016.4
20260902215703 63 163 2.0 7.0 0.00 0.00 0.00 88 1016.5
20260902215203 63 169 3.0 8.0 0.00 0.00 0.00 88 1016.6
20260902214703 63 165 2.0 5.0 0.00 0.00 0.00 88 1016.6
20260902214203 63 198 0.0 6.0 0.00 0.00 0.00 88 1016.6
20260902213705 63 174 2.0 6.0 0.00 0.00 0.00 88 1016.6
20260902213203 63 196 1.0 3.0 0.00 0.00 0.00 88 1016.7
20260902212703 63 232 3.0 7.0 0.00 0.00 0.00 87 1016.8
20260902212203 64 231 3.0 5.0 0.00 0.00 0.00 87 1016.8
20260902211703 64 250 3.0 7.0 0.00 0.00 0.00 87 1016.8
20260902211204 64 233 4.0 6.0 0.00 0.00 0.00 87 1016.9
20260902210703 64 245 3.0 7.0 0.00 0.00 0.00 87 1016.8
20260902210203 64 240 3.0 6.0 0.00 0.00 0.00 87 1016.8
20260902204703 64 242 7.0 13.0 0.00 0.00 0.00 86 1017.0
20260902204204 64 234 8.0 17.0 0.00 0.00 0.00 86 1017.0
20260902203703 64 204 2.0 7.0 0.00 0.00 0.00 86 1016.9
20260902203203 64 180 0.0 3.0 0.00 0.00 0.00 86 1016.9
20260902202203 64 170 1.0 3.0 0.00 0.00 0.00 86 1017.0
20260902201703 64 162 2.0 5.0 0.00 0.00 0.00 85 1016.9
20260902201204 64 166 1.0 3.0 0.00 0.00 0.00 85 1017.0
20260902200703 64 171 0.0 0.0 0.00 0.00 0.00 85 1017.1
20260902200205 64 178 0.0 2.0 0.00 0.00 0.00 85 1017.1
20260902194703 64 193 0.0 0.0 0.00 0.00 0.00 84 1017.1
20260902194204 64 173 0.0 0.0 0.00 0.00 0.00 83 1017.1
20260902193203 64 210 0.0 0.0 0.00 0.00 0.00 83 1017.2